#timestamp,LO_Frequency,Hit 
1504843215.3,286047028.0,N
1504843235.2,286047030.7,P
1504843255.0,286047016.9,N
1504843255.9,286047016.9,N
1504843275.8,286047018.6,P
1504843295.6,286046997.7,N
1504843315.4,286046999.9,N
1504843335.2,286047001.4,N
1504843355.1,286046999.0,N
1504843356.0,286046999.0,N
1504843375.8,286047000.5,N
1504843395.6,286046996.9,N
1504843415.5,286046995.0,N
1504843435.3,286046996.9,N
1504843455.1,286046996.6,N
1504843475.9,286046998.7,N
1504843495.7,286047000.7,N
1504843515.5,286046998.5,N
1504843535.4,286046999.0,N
1504843555.2,286046993.4,N
1504843575.0,286046992.8,N
1504843575.9,286046992.8,N
1504843595.8,286046993.9,N
1504843615.6,286046995.2,N
1504843635.4,286046997.3,N
1504843655.3,286046992.1,N
1504843675.1,286046995.2,N
1504843676.0,286046995.2,N
1504843695.8,286046999.5,N
1504843715.6,286046996.8,N
1504843735.5,286047000.7,N
1504843755.3,286046996.3,N
1504843775.1,286046995.5,N
1504843795.9,286046995.3,N
1504843815.7,286046997.6,N
1504843835.5,286046993.7,N
1504843855.4,286046996.8,N
1504843875.2,286047001.0,N
1504843895.0,286046999.4,N
1504843895.9,286046999.4,N
1504843915.8,286046996.5,N
1504843935.6,286046998.7,N
1504843955.4,286047001.5,N
1504843975.3,286047001.9,N
1504843995.1,286047000.0,N
1504843996.0,286047000.0,N
1504844015.8,286047001.4,N
1504844035.7,286047001.6,N
1504844055.5,286047005.4,N
1504844075.3,286047004.8,N
1504844095.1,286046999.9,N
1504844115.9,286046996.5,N
1504844135.7,286046996.6,N
1504844155.5,286046998.8,N
1504844175.4,286047000.4,N
1504844195.2,286047004.0,N
1504844215.0,286047002.1,N
1504844215.9,286047002.1,N
1504844235.8,286047000.6,N
1504844255.6,286047000.5,N
1504844275.4,286047000.6,N
1504844295.3,286047001.5,N
1504844315.1,286047002.5,N
1504844316.0,286047002.5,N
1504844335.8,286047004.3,N
1504844355.7,286047007.3,N
1504844375.5,286047006.1,N
1504844395.3,286047004.7,N
1504844415.2,286047009.0,P
1504844435.9,286047004.9,N
1504844455.7,286047002.1,N
1504844475.6,286047002.0,N
1504844495.4,286047002.0,N
1504844515.2,286047005.5,N
1504844535.0,286047001.8,N
1504844536.0,286047001.8,N
1504844555.8,286047002.6,N
1504844575.6,286047001.7,N
1504844595.4,286047001.7,N
1504844615.3,286047003.5,N
1504844635.1,286046999.8,N
1504844655.8,286046999.4,N
1504844675.7,286046995.2,N
1504844695.5,286046992.2,N
1504844715.3,286046990.1,N
1504844735.2,286046985.9,P
1504844755.9,286046981.0,N
1504844775.7,286046979.6,N
1504844795.6,286046977.6,N
1504844815.4,286046978.6,N
1504844835.2,286046979.4,N
1504844855.1,286046980.2,N
1504844856.0,286046980.2,N
1504844875.8,286046978.9,P
1504844895.6,286046998.3,N
1504844915.5,286046997.9,N
1504844935.3,286046997.6,N
1504844955.1,286046996.2,N
1504844975.9,286046996.0,N
1504844995.7,286046991.9,N
1504845015.5,286046990.1,N
1504845035.4,286046989.2,N
1504845055.2,286046988.9,N
1504845075.0,286046988.3,N
1504845075.9,286046988.3,N
1504845095.7,286046985.5,N
1504845115.6,286046987.7,N
1504845135.4,286046989.7,N
1504845155.2,286046988.4,N
1504845175.1,286046984.4,N
1504845176.0,286046984.4,N
1504845195.8,286046984.0,P
1504845215.6,286046997.6,N
1504845235.5,286046997.0,N
1504845255.3,286046994.9,N
1504845275.1,286047000.5,N
1504845295.9,286047002.4,N
1504845315.7,286047001.4,N
1504845335.5,286046999.4,N
1504845355.4,286046997.4,N
1504845375.2,286046994.3,N
1504845395.0,286046993.2,N
1504845395.9,286046993.2,N
1504845415.8,286046997.3,N
1504845435.6,286047002.1,N
1504845455.4,286047004.5,N
1504845475.3,286047012.0,N
1504845495.1,286047012.8,N
1504845496.0,286047012.8,N
1504845515.8,286047017.0,N
1504845535.7,286047021.5,N
1504845555.5,286047020.8,N
1504845575.3,286047022.9,N
1504845595.1,286047023.4,N
1504845615.9,286047022.7,N
1504845635.7,286047025.6,N
1504845655.5,286047022.6,N
1504845675.4,286047022.2,N
1504845695.2,286047023.8,N
1504845715.0,286047024.2,N
1504845715.9,286047024.2,N
1504845735.8,286047025.0,N
1504845755.6,286047022.9,N
1504845775.4,286047024.1,N
1504845795.3,286047024.5,N
1504845815.1,286047027.9,N
1504845816.0,286047027.9,N
1504845835.8,286047025.9,N
1504845855.7,286047030.0,N
1504845875.5,286047027.3,N
1504845895.3,286047027.5,N
1504845915.2,286047028.7,N
1504845935.9,286047031.4,P
1504845955.7,286047009.7,N
1504845975.6,286047010.7,N
1504845995.4,286047010.7,N
1504846015.2,286047012.3,N
1504846035.0,286047013.7,N
1504846036.0,286047013.7,N
1504846055.8,286047016.8,N
1504846075.6,286047009.4,N
1504846095.4,286047011.5,N
1504846115.3,286047013.9,N
1504846135.1,286047014.0,N
1504846155.8,286047011.3,N
1504846175.7,286047011.7,N
1504846195.5,286047012.6,N
1504846215.3,286047018.3,P
1504846235.2,286047004.4,N
1504846255.0,286047002.6,N
1504846255.9,286047002.6,N
1504846275.7,286047002.2,N
1504846295.6,286047002.7,N
1504846315.4,286046998.7,N
1504846335.2,286046999.1,N
1504846355.1,286046998.9,N
1504846356.0,286046998.9,N
1504846375.8,286046997.7,N
1504846395.6,286046997.8,N
1504846415.5,286046993.6,N
1504846435.3,286046997.8,N
1504846455.1,286046998.3,N
1504846475.9,286047000.2,N
1504846495.7,286047000.6,N
1504846515.5,286047004.3,N
1504846535.4,286047004.0,N
1504846555.2,286047005.7,N
1504846575.0,286047004.8,N
1504846575.9,286047004.8,N
1504846595.7,286047003.6,N
1504846615.6,286047003.5,N
1504846635.4,286047002.9,N
1504846655.2,286047003.8,N
1504846675.1,286047002.5,N
1504846676.0,286047002.5,N
1504846695.8,286046998.4,N
1504846715.6,286046999.4,N
1504846735.5,286046999.4,N
1504846755.3,286047001.0,N
1504846775.1,286046999.2,N
1504846795.9,286047000.8,N
